CHINASAT 9B

Last updated on Thu Oct 30 2025 00:02:52 GMT+0000 (Coordinated Universal Time)

1 49125U 21080A 25302.49118448 -.00000303 00000+0 00000+0 0 9998 2 49125 0.0361 69.2067 0003609 146.6300 100.5019 1.00272894 15332
UTC large
Height (km)
Speed (km/s)
/
Latitude / Longitude
Inclination (degrees)
Orbital Period (minutes)
Azimuth
Elevation
Range (km)
Doppler Factor

Next 0 passes for location: London (51.5072 / 0.1276)

Sorry there are no passes over London.